Terminal Aerodrome Forecast
Issued by NWS

Home | Current Version | Previous Version | Graphics & Text | Print | Product List | Glossary Off
Versions: 1 2 3 4 5 6 7 8 9 10 11 12 13 14 15 16 17 18 19 20 21 22 23 24 25 26 27 28 29 30 31 32 33 34 35 36 37 38 39 40 41 42 43 44 45 46 47 48 49 50

354
FTUS43 KDDC 221225 AAB
TAFHYS
TAF AMD
KHYS 221225Z 2212/2312 33024G36KT 3/4SM -SN BR OVC007
      TEMPO 2212/2216 1/4SM SN BLSN
     FM221600 33025G35KT 3SM BLSN BKN020
     FM222000 32020G30KT P6SM SCT070
     FM230200 32010KT P6SM SKC=

USA.gov is the U.S. government's official web portal to all federal, state and local government web resources and services.